Location: Byszew
(52.1813°N, 19.2693°E)
Time: 21:42:52
(UTC+00:00)

BEESAT - Visible Passes

Search period start: 27 June 2022 00:00
Search period end: 07 July 2022 00:00
Orbit: 698 x 708 km, 98.6° (Epoch: 27 June)

Date Brightness Start Highest point End Pass type
(mag) Time Alt. Az. Time Alt. Az. Time Alt. Az.
27 Jun ? 20:38:16 10° N 20:42:09 25° WNW 20:46:01 10° WSW visible
28 Jun ? 21:22:22 10° NNW 21:24:35 13° NW 21:26:47 10° WNW visible
29 Jun ? 20:26:17 10° N 20:30:27 31° WNW 20:34:37 10° WSW visible
30 Jun ? 21:10:06 10° NNW 21:12:57 16° NW 21:15:47 10° W visible
01 Jul ? 20:14:19 10° N 20:18:44 38° WNW 20:23:07 10° SW visible
02 Jul ? 20:57:58 10° N 21:01:18 19° NW 21:04:38 10° W visible
03 Jul ? 20:02:25 10° N 20:07:00 47° WNW 20:11:33 10° SW visible
04 Jul ? 20:45:54 10° N 20:49:38 23° WNW 20:53:21 10° WSW visible
05 Jul ? 19:50:31 10° N 19:55:14 59° WNW 19:59:55 10° SSW visible
05 Jul ? 21:30:14 10° NNW 21:32:01 12° NW 21:33:48 10° WNW visible
06 Jul ? 20:33:54 10° N 20:37:56 28° WNW 20:41:58 10° WSW visible
